TimeCST,TemperatureF,Dew PointF,Humidity,Sea Level PressureIn,VisibilityMPH,Wind Direction,Wind SpeedMPH,Gust SpeedMPH,PrecipitationIn,Events,Conditions,WindDirDegrees,DateUTC
12:15 AM,42.1,22.3,45,30.32,10.0,NNW,6.9,-,N/A,,Clear,340,2013-03-06 06:15:00
12:35 AM,41.7,22.6,47,30.33,10.0,NNW,6.9,-,N/A,,Clear,340,2013-03-06 06:35:00
12:55 AM,41.4,22.1,46,30.34,10.0,NNW,4.6,-,N/A,,Clear,340,2013-03-06 06:55:00
1:15 AM,40.8,22.5,48,30.33,10.0,NNW,5.8,-,N/A,,Clear,340,2013-03-06 07:15:00
1:35 AM,40.6,21.9,47,30.33,10.0,NW,4.6,-,N/A,,Clear,320,2013-03-06 07:35:00
1:55 AM,40.3,21.9,48,30.33,10.0,NNW,4.6,-,N/A,,Clear,330,2013-03-06 07:55:00
2:15 AM,39.6,22.3,50,30.33,10.0,NNW,5.8,-,N/A,,Clear,330,2013-03-06 08:15:00
2:35 AM,39.6,21.9,49,30.33,10.0,NW,4.6,-,N/A,,Clear,320,2013-03-06 08:35:00
2:55 AM,39.2,22.1,50,30.33,10.0,NNW,4.6,-,N/A,,Clear,330,2013-03-06 08:55:00
3:15 AM,39.2,22.1,50,30.33,10.0,NW,3.5,-,N/A,,Clear,320,2013-03-06 09:15:00
3:35 AM,38.1,22.8,54,30.34,10.0,NNW,4.6,-,N/A,,Clear,330,2013-03-06 09:35:00
3:55 AM,37.8,22.8,55,30.34,10.0,NW,3.5,-,N/A,,Clear,310,2013-03-06 09:55:00
4:15 AM,37.2,23.2,57,30.35,10.0,NW,4.6,-,N/A,,Clear,320,2013-03-06 10:15:00
4:35 AM,37.2,23.4,57,30.36,10.0,NNW,4.6,-,N/A,,Clear,330,2013-03-06 10:35:00
4:55 AM,37.4,22.8,56,30.37,10.0,NW,5.8,-,N/A,,Clear,320,2013-03-06 10:55:00
5:15 AM,37.4,23.0,56,30.37,10.0,NNW,6.9,-,N/A,,Clear,340,2013-03-06 11:15:00
5:35 AM,36.9,23.4,58,30.38,10.0,NNW,5.8,-,N/A,,Clear,340,2013-03-06 11:35:00
5:55 AM,36.9,23.0,57,30.38,10.0,NNW,5.8,-,N/A,,Clear,330,2013-03-06 11:55:00
6:15 AM,36.5,23.0,58,30.38,10.0,North,5.8,-,N/A,,Clear,350,2013-03-06 12:15:00
6:35 AM,35.8,23.0,60,30.38,10.0,NNW,4.6,-,N/A,,Clear,340,2013-03-06 12:35:00
6:55 AM,35.6,23.7,62,30.39,10.0,NNW,5.8,-,N/A,,Clear,340,2013-03-06 12:55:00
7:15 AM,36.9,23.2,58,30.39,10.0,NNW,5.8,-,N/A,,Clear,340,2013-03-06 13:15:00
7:35 AM,38.5,22.6,53,30.40,10.0,North,9.2,-,N/A,,Clear,350,2013-03-06 13:35:00
7:55 AM,40.1,22.6,50,30.41,10.0,North,8.1,-,N/A,,Clear,360,2013-03-06 13:55:00
8:15 AM,41.0,21.7,46,30.42,10.0,NNW,12.7,21.9,N/A,,Clear,340,2013-03-06 14:15:00
8:35 AM,42.3,22.1,45,30.42,10.0,North,12.7,18.4,N/A,,Clear,10,2013-03-06 14:35:00
8:55 AM,43.0,21.9,43,30.43,10.0,NNW,6.9,-,N/A,,Clear,340,2013-03-06 14:55:00
9:15 AM,44.4,21.2,40,30.43,10.0,NNE,8.1,-,N/A,,Clear,20,2013-03-06 15:15:00
9:35 AM,45.0,21.2,39,30.42,10.0,North,6.9,-,N/A,,Clear,350,2013-03-06 15:35:00
9:55 AM,45.9,20.3,36,30.42,10.0,NNW,9.2,-,N/A,,Clear,340,2013-03-06 15:55:00
10:15 AM,47.5,19.8,33,30.42,10.0,North,8.1,-,N/A,,Clear,360,2013-03-06 16:15:00
10:35 AM,48.6,19.6,32,30.42,10.0,NNE,3.5,-,N/A,,Clear,20,2013-03-06 16:35:00
10:55 AM,49.6,19.9,31,30.42,10.0,NNE,6.9,-,N/A,,Clear,30,2013-03-06 16:55:00
11:15 AM,49.8,18.7,29,30.42,10.0,WSW,3.5,-,N/A,,Clear,250,2013-03-06 17:15:00
11:35 AM,51.6,18.9,28,30.41,10.0,North,8.1,-,N/A,,Clear,350,2013-03-06 17:35:00
11:55 AM,52.7,18.1,26,30.40,10.0,North,4.6,-,N/A,,Clear,350,2013-03-06 17:55:00
12:15 PM,54.0,17.8,24,30.38,10.0,NNW,8.1,-,N/A,,Clear,330,2013-03-06 18:15:00
12:35 PM,55.0,16.3,22,30.37,10.0,NNE,6.9,-,N/A,,Clear,20,2013-03-06 18:35:00
12:55 PM,56.5,16.9,21,30.35,10.0,NE,5.8,-,N/A,,Clear,40,2013-03-06 18:55:00
1:15 PM,56.3,17.4,22,30.34,10.0,North,6.9,-,N/A,,Clear,360,2013-03-06 19:15:00
1:55 PM,57.9,16.0,19,30.32,10.0,NNW,9.2,-,N/A,,Clear,330,2013-03-06 19:55:00
2:15 PM,58.1,14.2,18,30.32,10.0,NNW,4.6,-,N/A,,Clear,340,2013-03-06 20:15:00
2:35 PM,58.8,15.4,18,30.31,10.0,NW,4.6,9.2,N/A,,Clear,320,2013-03-06 20:35:00
2:55 PM,59.9,15.4,18,30.30,10.0,NNE,9.2,-,N/A,,Clear,20,2013-03-06 20:55:00
3:15 PM,59.4,14.9,18,30.31,10.0,ENE,4.6,-,N/A,,Clear,60,2013-03-06 21:15:00
3:35 PM,60.4,14.0,16,30.31,10.0,NNE,6.9,-,N/A,,Clear,30,2013-03-06 21:35:00
3:55 PM,59.5,14.0,17,30.30,10.0,NE,4.6,-,N/A,,Clear,50,2013-03-06 21:55:00
4:15 PM,60.1,15.8,18,30.30,10.0,WNW,5.8,-,N/A,,Clear,290,2013-03-06 22:15:00
4:35 PM,59.5,15.3,18,30.29,10.0,North,6.9,-,N/A,,Clear,350,2013-03-06 22:35:00
4:55 PM,59.2,14.5,17,30.29,10.0,NE,4.6,-,N/A,,Clear,40,2013-03-06 22:55:00
5:15 PM,58.6,15.4,18,30.30,10.0,NNE,6.9,-,N/A,,Clear,20,2013-03-06 23:15:00
5:35 PM,57.0,19.2,23,30.31,10.0,NE,4.6,-,N/A,,Clear,40,2013-03-06 23:35:00
5:55 PM,54.9,20.5,26,30.31,10.0,NE,4.6,-,N/A,,Clear,50,2013-03-06 23:55:00
6:15 PM,52.3,26.2,36,30.31,10.0,Calm,Calm,-,N/A,,Clear,0,2013-03-07 00:15:00
6:35 PM,47.8,28.6,47,30.31,10.0,Calm,Calm,-,N/A,,Clear,0,2013-03-07 00:35:00
6:55 PM,45.3,30.4,56,30.31,10.0,Calm,Calm,-,N/A,,Clear,0,2013-03-07 00:55:00
7:15 PM,43.7,30.7,60,30.31,10.0,Calm,Calm,-,N/A,,Clear,0,2013-03-07 01:15:00
7:35 PM,48.0,26.6,43,30.31,10.0,Calm,Calm,-,N/A,,Clear,0,2013-03-07 01:35:00
7:55 PM,44.1,30.9,60,30.31,10.0,Calm,Calm,-,N/A,,Clear,0,2013-03-07 01:55:00
8:15 PM,43.3,30.7,61,30.31,10.0,ENE,3.5,-,N/A,,Clear,70,2013-03-07 02:15:00
8:35 PM,44.6,28.4,53,30.31,10.0,East,4.6,-,N/A,,Clear,100,2013-03-07 02:35:00
8:55 PM,44.2,29.5,56,30.31,10.0,East,3.5,-,N/A,,Clear,90,2013-03-07 02:55:00
9:15 PM,43.3,30.2,60,30.32,10.0,ESE,3.5,-,N/A,,Clear,110,2013-03-07 03:15:00
9:35 PM,42.8,30.7,62,30.33,10.0,East,3.5,-,N/A,,Clear,90,2013-03-07 03:35:00
9:55 PM,43.0,30.7,62,30.33,10.0,Calm,Calm,-,N/A,,Clear,0,2013-03-07 03:55:00
10:35 PM,43.0,30.7,62,30.32,10.0,East,3.5,-,N/A,,Clear,90,2013-03-07 04:35:00
10:55 PM,42.4,30.6,63,30.32,10.0,East,3.5,-,N/A,,Clear,90,2013-03-07 04:55:00
11:15 PM,42.4,31.1,64,30.33,10.0,Calm,Calm,-,N/A,,Clear,0,2013-03-07 05:15:00
11:35 PM,41.7,31.8,68,30.32,10.0,Calm,Calm,-,N/A,,Clear,0,2013-03-07 05:35:00
11:55 PM,39.2,33.1,79,30.33,10.0,Calm,Calm,-,N/A,,Clear,0,2013-03-07 05:55:00